Location: Alladorf
(49.9620°N, 11.3790°E)
Time: 20:40:37
(UTC+00:00)

Cosmos 1356 - Pass Details

Date: 29 November 2020
Orbit: 440 x 444 km, 81.1° (Epoch: 25 January)

Event Time Altitude Azimuth Distance (km) Brightness Sun altitude
Rises 05:54:57 0° 195° (SSW) 2,420 7.2 -8.4°
Reaches altitude 10° 05:57:00 10° 198° (SSW) 1,556 6.2 -8.1°
Maximum altitude 06:00:23 72° 283° (WNW) 471 3.3 -7.6°
Drops below altitude 10° 06:03:49 10° 8° (N) 1,572 6.0 -7.1°
Sets 06:05:54 0° 11° (N) 2,449 7.0 -6.8°
